Time,TemperatureF,DewpointF,PressureIn,WindDirection,WindDirectionDegrees,WindSpeedMPH,WindSpeedGustMPH,Humidity,HourlyPrecipIn,Conditions,Clouds,dailyrainin,SoftwareType,DateUTC
2013-01-13 00:02:00,10.9,-1.3,29.88,NW,315,4.7,4.7,57,0.00,,---,0.00,VWS V14.01,2013-01-13 06:02:00,
2013-01-13 00:07:00,10.9,-1.3,29.88,West,270,2.9,3.1,57,0.00,,---,0.00,VWS V14.01,2013-01-13 06:07:00,
2013-01-13 00:12:00,10.8,-1.5,29.88,NW,315,3.4,6.0,57,0.00,,---,0.00,VWS V14.01,2013-01-13 06:12:00,
2013-01-13 00:17:00,10.8,-1.5,29.88,NNW,338,3.4,4.0,57,0.00,,---,0.00,VWS V14.01,2013-01-13 06:17:00,
2013-01-13 00:22:00,10.8,-1.5,29.88,WNW,292,3.8,4.9,57,0.00,,---,0.00,VWS V14.01,2013-01-13 06:22:00,
2013-01-13 00:27:00,10.8,-1.5,29.88,NW,315,4.3,7.8,57,0.00,,---,0.00,VWS V14.01,2013-01-13 06:27:00,
2013-01-13 00:32:00,10.6,-1.6,29.88,NNW,338,5.6,6.5,57,0.00,,---,0.00,VWS V14.01,2013-01-13 06:32:00,
2013-01-13 00:37:00,10.6,-1.6,29.88,NNW,338,5.4,5.6,57,0.00,,---,0.00,VWS V14.01,2013-01-13 06:37:00,
2013-01-13 00:42:00,10.4,-1.8,29.88,WNW,292,7.4,7.4,57,0.00,,---,0.00,VWS V14.01,2013-01-13 06:42:00,
2013-01-13 00:47:00,10.4,-1.8,29.91,WNW,292,5.8,7.2,57,0.00,,---,0.00,VWS V14.01,2013-01-13 06:47:00,
2013-01-13 00:52:00,10.4,-1.8,29.91,WNW,292,9.6,9.6,57,0.00,,---,0.00,VWS V14.01,2013-01-13 06:52:00,
2013-01-13 00:57:00,10.2,-2.0,29.91,NW,315,7.6,7.6,57,0.00,,---,0.00,VWS V14.01,2013-01-13 06:57:00,
2013-01-13 01:02:00,10.2,-2.0,29.91,WNW,292,7.6,7.6,57,0.00,,---,0.00,VWS V14.01,2013-01-13 07:02:00,
2013-01-13 01:07:00,10.2,-2.0,29.91,WNW,292,5.4,5.4,57,0.00,,---,0.00,VWS V14.01,2013-01-13 07:07:00,
2013-01-13 01:12:00,10.2,-2.0,29.91,NNW,338,6.0,6.0,57,0.00,,---,0.00,VWS V14.01,2013-01-13 07:12:00,
2013-01-13 01:17:00,10.2,-2.0,29.91,NNW,338,3.6,3.6,57,0.00,,---,0.00,VWS V14.01,2013-01-13 07:17:00,
2013-01-13 01:22:00,10.0,-2.1,29.91,NNW,338,8.7,8.7,57,0.00,,---,0.00,VWS V14.01,2013-01-13 07:22:00,
2013-01-13 01:27:00,10.0,-2.1,29.91,WNW,292,3.1,3.1,57,0.00,,---,0.00,VWS V14.01,2013-01-13 07:27:00,
2013-01-13 01:32:00,10.0,-2.1,29.88,WNW,292,6.0,6.0,57,0.00,,---,0.00,VWS V14.01,2013-01-13 07:32:00,
2013-01-13 01:37:00,9.9,-2.3,29.88,West,270,4.9,4.9,57,0.00,,---,0.00,VWS V14.01,2013-01-13 07:37:00,
2013-01-13 01:42:00,9.9,-2.3,29.88,NNE,22,8.5,8.5,57,0.00,,---,0.00,VWS V14.01,2013-01-13 07:42:00,
2013-01-13 01:47:00,9.7,-2.5,29.88,WNW,292,2.0,2.9,57,0.00,,---,0.00,VWS V14.01,2013-01-13 07:47:00,
2013-01-13 01:52:00,9.7,-2.5,29.88,WNW,292,4.3,4.3,57,0.00,,---,0.00,VWS V14.01,2013-01-13 07:52:00,
2013-01-13 01:57:00,9.7,-2.5,29.88,NNE,22,3.6,3.6,57,0.00,,---,0.00,VWS V14.01,2013-01-13 07:57:00,
2013-01-13 02:02:00,9.5,-2.7,29.91,NW,315,5.8,5.8,57,0.00,,---,0.00,VWS V14.01,2013-01-13 08:02:00,
2013-01-13 02:07:00,9.5,-2.7,29.91,WNW,292,1.3,2.5,57,0.00,,---,0.00,VWS V14.01,2013-01-13 08:07:00,
2013-01-13 02:12:00,9.3,-2.8,29.91,NNE,22,4.9,4.9,57,0.00,,---,0.00,VWS V14.01,2013-01-13 08:12:00,
2013-01-13 02:17:00,9.3,-2.8,29.91,SSW,202,3.6,3.6,57,0.00,,---,0.00,VWS V14.01,2013-01-13 08:17:00,
2013-01-13 02:22:00,9.3,-2.8,29.91,WNW,292,2.9,2.9,57,0.00,,---,0.00,VWS V14.01,2013-01-13 08:22:00,
2013-01-13 02:27:00,9.3,-2.8,29.91,SW,225,4.7,4.9,57,0.00,,---,0.00,VWS V14.01,2013-01-13 08:27:00,
2013-01-13 02:32:00,9.3,-2.8,29.91,WNW,292,3.8,5.6,57,0.00,,---,0.00,VWS V14.01,2013-01-13 08:32:00,
2013-01-13 02:38:00,9.1,-3.0,29.91,WNW,292,5.6,5.6,57,0.00,,---,0.00,VWS V14.01,2013-01-13 08:38:00,
2013-01-13 02:43:00,9.1,-3.0,29.91,NW,315,3.6,3.6,57,0.00,,---,0.00,VWS V14.01,2013-01-13 08:43:00,
2013-01-13 02:48:00,9.1,-3.0,29.91,NW,315,6.0,6.0,57,0.00,,---,0.00,VWS V14.01,2013-01-13 08:48:00,
2013-01-13 02:53:00,9.1,-3.0,29.91,NW,315,5.4,5.4,57,0.00,,---,0.00,VWS V14.01,2013-01-13 08:53:00,
2013-01-13 02:58:00,9.3,-2.8,29.91,NW,315,2.9,3.4,57,0.00,,---,0.00,VWS V14.01,2013-01-13 08:58:00,
2013-01-13 03:03:00,9.3,-2.8,29.91,WNW,292,3.6,3.6,57,0.00,,---,0.00,VWS V14.01,2013-01-13 09:03:00,
2013-01-13 03:08:00,9.3,-2.8,29.91,WNW,292,4.0,4.0,57,0.00,,---,0.00,VWS V14.01,2013-01-13 09:08:00,
2013-01-13 03:13:00,9.3,-2.8,29.91,NNW,338,2.5,5.4,57,0.00,,---,0.00,VWS V14.01,2013-01-13 09:13:00,
2013-01-13 03:18:00,9.3,-2.8,29.91,NNW,338,3.4,4.9,57,0.00,,---,0.00,VWS V14.01,2013-01-13 09:18:00,
2013-01-13 03:23:00,9.3,-2.8,29.91,West,270,2.2,2.2,57,0.00,,---,0.00,VWS V14.01,2013-01-13 09:23:00,
2013-01-13 03:28:00,9.3,-2.8,29.91,WNW,292,4.9,4.9,57,0.00,,---,0.00,VWS V14.01,2013-01-13 09:28:00,
2013-01-13 03:33:00,9.5,-2.7,29.91,ENE,68,2.7,6.0,57,0.00,,---,0.00,VWS V14.01,2013-01-13 09:33:00,
2013-01-13 03:38:00,9.5,-2.7,29.91,WNW,292,4.3,7.4,57,0.00,,---,0.00,VWS V14.01,2013-01-13 09:38:00,
2013-01-13 03:43:00,9.7,-2.5,29.91,NW,315,4.3,4.3,57,0.00,,---,0.00,VWS V14.01,2013-01-13 09:43:00,
2013-01-13 03:48:00,9.7,-2.5,29.91,NNW,338,6.0,6.0,57,0.00,,---,0.00,VWS V14.01,2013-01-13 09:48:00,
2013-01-13 03:53:00,9.9,-2.3,29.91,West,270,3.8,6.3,57,0.00,,---,0.00,VWS V14.01,2013-01-13 09:53:00,
2013-01-13 03:58:00,9.9,-2.3,29.91,NNW,338,5.8,5.8,57,0.00,,---,0.00,VWS V14.01,2013-01-13 09:58:00,
2013-01-13 04:03:00,10.0,-2.1,29.91,NNW,338,4.0,4.0,57,0.00,,---,0.00,VWS V14.01,2013-01-13 10:03:00,
2013-01-13 04:08:00,10.0,-2.1,29.91,NNW,338,8.1,8.1,57,0.00,,---,0.00,VWS V14.01,2013-01-13 10:08:00,
2013-01-13 04:13:00,10.0,-2.1,29.91,NNW,338,5.8,6.5,57,0.00,,---,0.00,VWS V14.01,2013-01-13 10:13:00,
2013-01-13 04:18:00,10.2,-2.0,29.88,WNW,292,7.6,7.6,57,0.00,,---,0.00,VWS V14.01,2013-01-13 10:18:00,
2013-01-13 04:23:00,10.2,-2.0,29.88,NNW,338,3.1,6.5,57,0.00,,---,0.00,VWS V14.01,2013-01-13 10:23:00,
2013-01-13 04:28:00,10.2,-2.0,29.88,NNW,338,4.3,4.7,57,0.00,,---,0.00,VWS V14.01,2013-01-13 10:28:00,
2013-01-13 04:33:00,10.2,-2.0,29.91,NNE,22,9.0,9.0,57,0.00,,---,0.00,VWS V14.01,2013-01-13 10:33:00,
2013-01-13 04:38:00,10.2,-2.0,29.91,NW,315,3.6,5.6,57,0.00,,---,0.00,VWS V14.01,2013-01-13 10:38:00,
2013-01-13 04:43:00,10.0,-2.1,29.91,WNW,292,6.0,10.1,57,0.00,,---,0.00,VWS V14.01,2013-01-13 10:43:00,
2013-01-13 04:48:00,9.9,-2.3,29.91,WNW,292,5.4,7.4,57,0.00,,---,0.00,VWS V14.01,2013-01-13 10:48:00,
2013-01-13 04:53:00,9.7,-2.5,29.91,NNE,22,5.8,5.8,57,0.00,,---,0.00,VWS V14.01,2013-01-13 10:53:00,
2013-01-13 04:58:00,9.5,-2.7,29.91,NNW,338,4.7,4.7,57,0.00,,---,0.00,VWS V14.01,2013-01-13 10:58:00,
2013-01-13 05:03:00,9.3,-2.8,29.91,East,90,3.8,3.8,57,0.00,,---,0.00,VWS V14.01,2013-01-13 11:03:00,
2013-01-13 05:08:00,9.1,-3.0,29.91,NW,315,3.8,3.8,57,0.00,,---,0.00,VWS V14.01,2013-01-13 11:08:00,
2013-01-13 05:13:00,9.0,-3.2,29.91,ESE,112,2.9,4.3,57,0.00,,---,0.00,VWS V14.01,2013-01-13 11:13:00,
2013-01-13 05:18:00,8.8,-3.3,29.94,NNE,22,4.0,4.0,57,0.00,,---,0.00,VWS V14.01,2013-01-13 11:18:00,
2013-01-13 05:23:00,8.8,-3.3,29.94,WNW,292,3.4,3.4,57,0.00,,---,0.00,VWS V14.01,2013-01-13 11:23:00,
2013-01-13 05:28:00,8.8,-3.3,29.94,WNW,292,3.1,3.1,57,0.00,,---,0.00,VWS V14.01,2013-01-13 11:28:00,
2013-01-13 05:33:00,8.6,-3.5,29.94,SSW,202,2.5,2.5,57,0.00,,---,0.00,VWS V14.01,2013-01-13 11:33:00,
2013-01-13 05:38:00,8.6,-3.5,29.94,NNW,338,2.5,4.9,57,0.00,,---,0.00,VWS V14.01,2013-01-13 11:38:00,
2013-01-13 05:43:00,8.6,-3.5,29.94,NNW,338,3.6,6.5,57,0.00,,---,0.00,VWS V14.01,2013-01-13 11:43:00,
2013-01-13 05:48:00,8.4,-3.7,29.94,West,270,3.1,3.1,57,0.00,,---,0.00,VWS V14.01,2013-01-13 11:48:00,
2013-01-13 05:53:00,8.4,-3.7,29.94,NE,45,1.3,1.3,57,0.00,,---,0.00,VWS V14.01,2013-01-13 11:53:00,
2013-01-13 05:58:00,8.4,-3.7,29.94,WNW,292,2.7,3.6,57,0.00,,---,0.00,VWS V14.01,2013-01-13 11:58:00,
2013-01-13 06:03:00,8.4,-3.7,29.94,WNW,292,2.7,6.9,57,0.00,,---,0.00,VWS V14.01,2013-01-13 12:03:00,
2013-01-13 06:08:00,8.2,-3.8,29.94,South,180,3.4,3.4,57,0.00,,---,0.00,VWS V14.01,2013-01-13 12:08:00,
2013-01-13 06:13:00,8.2,-3.8,29.94,NNW,338,3.4,3.4,57,0.00,,---,0.00,VWS V14.01,2013-01-13 12:13:00,
2013-01-13 06:15:00,89.6,68.5,30.27,SSW,202,0.0,2.9,50,0.00,,---,0.00,VWS V14.01,2013-01-13 12:15:00,
2013-01-13 06:18:00,8.1,-4.0,29.94,WSW,248,3.4,6.0,57,0.00,,---,0.00,VWS V14.01,2013-01-13 12:18:00,
2013-01-13 06:23:00,8.1,-4.0,29.94,WNW,292,2.5,3.6,57,0.00,,---,0.00,VWS V14.01,2013-01-13 12:23:00,
2013-01-13 06:28:00,8.1,-4.0,29.94,WNW,292,2.7,2.7,57,0.00,,---,0.00,VWS V14.01,2013-01-13 12:28:00,
2013-01-13 06:29:00,84.9,71.4,30.03,SSW,202,3.6,3.6,64,0.00,,---,0.08,VWS V14.01,2013-01-13 12:29:00,
2013-01-13 06:33:00,8.1,-4.0,29.94,WNW,292,2.5,2.5,57,0.00,,---,0.00,VWS V14.01,2013-01-13 12:33:00,
2013-01-13 06:38:00,7.9,-4.2,29.94,NNE,22,1.1,4.3,57,0.00,,---,0.00,VWS V14.01,2013-01-13 12:38:00,
2013-01-13 06:44:00,7.9,-4.2,29.94,NNW,338,2.9,2.9,57,0.00,,---,0.00,VWS V14.01,2013-01-13 12:44:00,
2013-01-13 06:49:00,7.9,-4.2,29.94,NW,315,2.5,2.7,57,0.00,,---,0.00,VWS V14.01,2013-01-13 12:49:00,
2013-01-13 06:54:00,7.9,-4.2,29.94,NNE,22,2.2,2.2,57,0.00,,---,0.00,VWS V14.01,2013-01-13 12:54:00,
2013-01-13 06:59:00,7.7,-4.3,29.94,North,0,2.7,2.7,57,0.00,,---,0.00,VWS V14.01,2013-01-13 12:59:00,
2013-01-13 07:04:00,7.7,-4.3,29.94,WNW,292,2.7,2.9,57,0.00,,---,0.00,VWS V14.01,2013-01-13 13:04:00,
2013-01-13 07:09:00,7.7,-4.3,29.94,North,0,2.0,3.8,57,0.00,,---,0.00,VWS V14.01,2013-01-13 13:09:00,
2013-01-13 07:14:00,7.7,-4.3,29.94,WNW,292,3.6,3.6,57,0.00,,---,0.00,VWS V14.01,2013-01-13 13:14:00,
2013-01-13 07:19:00,7.7,-4.3,29.97,ENE,68,1.3,3.6,57,0.00,,---,0.00,VWS V14.01,2013-01-13 13:19:00,
2013-01-13 07:24:00,7.7,-4.3,29.97,WNW,292,2.5,3.6,57,0.00,,---,0.00,VWS V14.01,2013-01-13 13:24:00,
2013-01-13 07:29:00,7.7,-4.3,29.97,WNW,292,2.2,3.1,57,0.00,,---,0.00,VWS V14.01,2013-01-13 13:29:00,
2013-01-13 07:34:00,7.7,-4.3,29.97,NNW,338,3.6,3.6,57,0.00,,---,0.00,VWS V14.01,2013-01-13 13:34:00,
2013-01-13 07:39:00,7.7,-4.3,29.97,NW,315,3.4,3.4,57,0.00,,---,0.00,VWS V14.01,2013-01-13 13:39:00,
2013-01-13 07:44:00,7.7,-4.3,29.97,NNW,338,3.6,3.6,57,0.00,,---,0.00,VWS V14.01,2013-01-13 13:44:00,
2013-01-13 07:49:00,7.7,-4.3,29.97,WNW,292,2.7,3.4,57,0.00,,---,0.00,VWS V14.01,2013-01-13 13:49:00,
2013-01-13 07:54:00,7.7,-4.3,29.97,WNW,292,2.7,2.7,57,0.00,,---,0.00,VWS V14.01,2013-01-13 13:54:00,
2013-01-13 07:59:00,7.7,-4.3,29.97,NNW,338,1.6,2.7,57,0.00,,---,0.00,VWS V14.01,2013-01-13 13:59:00,
2013-01-13 08:04:00,7.7,-4.3,29.97,NW,315,3.6,3.6,57,0.00,,---,0.00,VWS V14.01,2013-01-13 14:04:00,
2013-01-13 08:09:00,7.9,-4.2,29.97,NW,315,2.5,4.0,57,0.00,,---,0.00,VWS V14.01,2013-01-13 14:09:00,
2013-01-13 08:14:00,8.1,-4.0,29.97,WNW,292,2.0,2.0,57,0.00,,---,0.00,VWS V14.01,2013-01-13 14:14:00,
2013-01-13 08:19:00,8.4,-3.7,30.00,WNW,292,2.5,2.5,57,0.00,,---,0.00,VWS V14.01,2013-01-13 14:19:00,
2013-01-13 08:24:00,9.1,-3.0,30.00,WNW,292,2.9,2.9,57,0.00,,---,0.00,VWS V14.01,2013-01-13 14:24:00,
2013-01-13 08:29:00,9.7,-2.5,30.00,NNW,338,3.6,6.0,57,0.00,,---,0.00,VWS V14.01,2013-01-13 14:29:00,
2013-01-13 08:34:00,10.2,-2.0,30.00,WNW,292,2.0,2.5,57,0.00,,---,0.00,VWS V14.01,2013-01-13 14:34:00,
2013-01-13 08:39:00,10.2,-2.0,30.00,NW,315,4.9,4.9,57,0.00,,---,0.00,VWS V14.01,2013-01-13 14:39:00,
2013-01-13 08:44:00,10.4,-1.8,30.00,NW,315,4.3,4.3,57,0.00,,---,0.00,VWS V14.01,2013-01-13 14:44:00,
2013-01-13 08:49:00,10.9,-1.3,30.00,NW,315,5.8,5.8,57,0.00,,---,0.00,VWS V14.01,2013-01-13 14:49:00,
2013-01-13 08:54:00,11.3,-1.0,30.00,WNW,292,2.9,2.9,57,0.00,,---,0.00,VWS V14.01,2013-01-13 14:54:00,
2013-01-13 08:59:00,11.8,-0.4,30.00,WNW,292,2.7,2.7,57,0.00,,---,0.00,VWS V14.01,2013-01-13 14:59:00,
2013-01-13 09:04:00,12.7,0.4,30.00,NW,315,6.0,6.0,57,0.00,,---,0.00,VWS V14.01,2013-01-13 15:04:00,
2013-01-13 09:09:00,12.9,0.6,30.00,WNW,292,6.3,6.3,57,0.00,,---,0.00,VWS V14.01,2013-01-13 15:09:00,
2013-01-13 09:14:00,13.1,0.7,30.00,NW,315,3.6,5.6,57,0.00,,---,0.00,VWS V14.01,2013-01-13 15:14:00,
2013-01-13 09:19:00,13.8,1.4,30.00,WNW,292,4.3,4.3,57,0.00,,---,0.00,VWS V14.01,2013-01-13 15:19:00,
2013-01-13 09:24:00,14.2,2.1,30.00,NW,315,2.7,3.1,58,0.00,,---,0.00,VWS V14.01,2013-01-13 15:24:00,
2013-01-13 09:29:00,14.5,2.5,30.00,WNW,292,5.8,5.8,58,0.00,,---,0.00,VWS V14.01,2013-01-13 15:29:00,
2013-01-13 09:34:00,13.8,1.8,30.00,NW,315,9.4,9.4,58,0.00,,---,0.00,VWS V14.01,2013-01-13 15:34:00,
2013-01-13 09:39:00,13.5,1.5,30.00,WNW,292,3.8,3.8,58,0.00,,---,0.00,VWS V14.01,2013-01-13 15:39:00,
2013-01-13 09:44:00,13.8,1.8,30.00,WNW,292,1.6,1.6,58,0.00,,---,0.00,VWS V14.01,2013-01-13 15:44:00,
2013-01-13 09:49:00,13.8,1.8,30.00,West,270,3.8,5.8,58,0.00,,---,0.00,VWS V14.01,2013-01-13 15:49:00,
2013-01-13 09:54:00,14.2,1.8,30.00,NNW,338,5.4,6.5,57,0.00,,---,0.00,VWS V14.01,2013-01-13 15:54:00,
2013-01-13 09:59:00,13.8,1.8,30.00,NW,315,5.6,5.6,58,0.00,,---,0.00,VWS V14.01,2013-01-13 15:59:00,
2013-01-13 10:04:00,13.6,1.6,30.00,NNW,338,3.6,3.6,58,0.00,,---,0.00,VWS V14.01,2013-01-13 16:04:00,
2013-01-13 10:09:00,13.6,1.6,30.00,WNW,292,5.6,5.6,58,0.00,,---,0.00,VWS V14.01,2013-01-13 16:09:00,
2013-01-13 10:14:00,13.6,1.6,30.00,NNW,338,6.3,6.3,58,0.00,,---,0.00,VWS V14.01,2013-01-13 16:14:00,
2013-01-13 10:19:00,13.6,1.6,30.00,West,270,2.2,3.8,58,0.00,,---,0.00,VWS V14.01,2013-01-13 16:19:00,
2013-01-13 10:24:00,14.0,2.0,30.00,NNE,22,7.2,7.2,58,0.00,,---,0.00,VWS V14.01,2013-01-13 16:24:00,
2013-01-13 10:29:00,14.2,1.8,30.00,NW,315,6.0,6.0,57,0.00,,---,0.00,VWS V14.01,2013-01-13 16:29:00,
2013-01-13 10:34:00,14.2,1.8,30.00,WNW,292,7.6,7.6,57,0.00,,---,0.00,VWS V14.01,2013-01-13 16:34:00,
2013-01-13 10:39:00,14.2,1.8,30.00,WNW,292,4.9,4.9,57,0.00,,---,0.00,VWS V14.01,2013-01-13 16:39:00,
2013-01-13 10:44:00,14.5,2.1,30.00,West,270,6.3,6.3,57,0.00,,---,0.00,VWS V14.01,2013-01-13 16:44:00,
2013-01-13 10:49:00,14.9,2.4,30.00,WSW,248,5.8,5.8,57,0.00,,---,0.00,VWS V14.01,2013-01-13 16:49:00,
2013-01-13 10:54:00,15.3,2.8,30.00,NW,315,4.0,4.0,57,0.00,,---,0.00,VWS V14.01,2013-01-13 16:54:00,
2013-01-13 10:59:00,15.4,2.6,30.00,NNW,338,6.0,7.8,56,0.00,,---,0.00,VWS V14.01,2013-01-13 16:59:00,
2013-01-13 11:05:00,16.2,3.2,30.00,WNW,292,2.7,3.1,56,0.00,,---,0.00,VWS V14.01,2013-01-13 17:05:00,
2013-01-13 11:10:00,17.1,4.1,30.00,NNW,338,5.8,5.8,56,0.00,,---,0.00,VWS V14.01,2013-01-13 17:10:00,
2013-01-13 11:15:00,17.6,4.6,30.00,WSW,248,8.5,8.5,56,0.00,,---,0.00,VWS V14.01,2013-01-13 17:15:00,
2013-01-13 11:20:00,17.8,4.4,30.00,WNW,292,4.9,7.4,55,0.00,,---,0.00,VWS V14.01,2013-01-13 17:20:00,
2013-01-13 11:25:00,18.5,5.0,30.00,NW,315,3.1,3.6,55,0.00,,---,0.00,VWS V14.01,2013-01-13 17:25:00,
2013-01-13 11:30:00,19.0,5.5,30.00,West,270,3.6,4.3,55,0.00,,---,0.00,VWS V14.01,2013-01-13 17:30:00,
2013-01-13 11:35:00,18.7,4.8,30.00,NNW,338,6.0,6.0,54,0.00,,---,0.00,VWS V14.01,2013-01-13 17:35:00,
2013-01-13 11:40:00,19.6,5.7,30.00,NNE,22,3.1,3.1,54,0.00,,---,0.00,VWS V14.01,2013-01-13 17:40:00,
2013-01-13 11:45:00,19.9,6.0,30.00,WNW,292,2.7,4.5,54,0.00,,---,0.00,VWS V14.01,2013-01-13 17:45:00,
2013-01-13 11:50:00,20.7,6.7,30.00,WNW,292,3.6,5.4,54,0.00,,---,0.00,VWS V14.01,2013-01-13 17:50:00,
2013-01-13 11:55:00,21.0,6.6,30.00,WNW,292,5.6,10.5,53,0.00,,---,0.00,VWS V14.01,2013-01-13 17:55:00,
2013-01-13 12:00:00,21.2,6.8,30.00,WNW,292,6.5,6.5,53,0.00,,---,0.00,VWS V14.01,2013-01-13 18:00:00,
2013-01-13 12:05:00,21.2,6.8,30.00,SSW,202,4.3,5.4,53,0.00,,---,0.00,VWS V14.01,2013-01-13 18:05:00,
2013-01-13 12:10:00,21.6,6.7,30.00,NNW,338,3.6,3.6,52,0.00,,---,0.00,VWS V14.01,2013-01-13 18:10:00,
2013-01-13 12:15:00,21.9,7.4,30.00,WNW,292,4.0,5.4,53,0.00,,---,0.00,VWS V14.01,2013-01-13 18:15:00,
2013-01-13 12:20:00,22.1,7.2,29.97,WNW,292,4.5,8.7,52,0.00,,---,0.00,VWS V14.01,2013-01-13 18:20:00,
2013-01-13 12:25:00,22.6,7.7,29.97,WNW,292,3.4,3.6,52,0.00,,---,0.00,VWS V14.01,2013-01-13 18:25:00,
2013-01-13 12:30:00,22.3,6.9,29.97,WNW,292,4.7,4.7,51,0.00,,---,0.00,VWS V14.01,2013-01-13 18:30:00,
2013-01-13 12:35:00,21.9,6.1,29.97,WNW,292,6.5,6.5,50,0.00,,---,0.00,VWS V14.01,2013-01-13 18:35:00,
2013-01-13 12:40:00,22.3,6.5,29.97,WSW,248,5.6,5.6,50,0.00,,---,0.00,VWS V14.01,2013-01-13 18:40:00,
2013-01-13 12:45:00,22.3,6.5,29.97,WNW,292,3.4,3.4,50,0.00,,---,0.00,VWS V14.01,2013-01-13 18:45:00,
2013-01-13 12:50:00,21.9,6.1,29.97,WNW,292,3.1,3.8,50,0.00,,---,0.00,VWS V14.01,2013-01-13 18:50:00,
2013-01-13 12:55:00,21.9,6.1,29.97,NNW,338,3.6,3.6,50,0.00,,---,0.00,VWS V14.01,2013-01-13 18:55:00,
2013-01-13 13:00:00,21.9,5.7,29.97,WNW,292,3.1,4.0,49,0.00,,---,0.00,VWS V14.01,2013-01-13 19:00:00,
2013-01-13 13:05:00,21.7,5.5,29.97,West,270,3.6,7.8,49,0.00,,---,0.00,VWS V14.01,2013-01-13 19:05:00,
2013-01-13 13:10:00,21.2,5.0,29.97,WNW,292,7.8,7.8,49,0.00,,---,0.00,VWS V14.01,2013-01-13 19:10:00,
2013-01-13 13:15:00,21.2,4.1,29.97,NW,315,8.5,8.5,47,0.00,,---,0.00,VWS V14.01,2013-01-13 19:15:00,
2013-01-13 13:20:00,21.0,4.0,29.97,NNW,338,10.3,10.3,47,0.00,,---,0.00,VWS V14.01,2013-01-13 19:20:00,
2013-01-13 13:25:00,21.2,4.1,29.97,NW,315,6.7,6.7,47,0.00,,---,0.00,VWS V14.01,2013-01-13 19:25:00,
2013-01-13 13:30:00,21.2,4.6,29.97,WNW,292,2.7,3.6,48,0.00,,---,0.00,VWS V14.01,2013-01-13 19:30:00,
2013-01-13 13:35:00,21.4,4.8,29.97,WNW,292,3.8,4.7,48,0.00,,---,0.00,VWS V14.01,2013-01-13 19:35:00,
2013-01-13 13:40:00,21.4,4.8,29.97,WNW,292,3.6,4.7,48,0.00,,---,0.00,VWS V14.01,2013-01-13 19:40:00,
2013-01-13 13:45:00,21.4,4.8,29.97,North,0,8.1,8.1,48,0.00,,---,0.00,VWS V14.01,2013-01-13 19:45:00,
2013-01-13 13:50:00,21.2,4.6,29.97,SE,135,2.7,2.7,48,0.00,,---,0.00,VWS V14.01,2013-01-13 19:50:00,
2013-01-13 13:55:00,21.6,4.9,29.97,WNW,292,3.4,3.4,48,0.00,,---,0.00,VWS V14.01,2013-01-13 19:55:00,
2013-01-13 14:00:00,21.7,5.1,29.97,WNW,292,6.5,7.2,48,0.00,,---,0.00,VWS V14.01,2013-01-13 20:00:00,
2013-01-13 14:05:00,21.7,5.1,29.97,WNW,292,5.8,5.8,48,0.00,,---,0.00,VWS V14.01,2013-01-13 20:05:00,
2013-01-13 14:10:00,21.7,5.1,29.97,NNW,338,6.3,6.3,48,0.00,,---,0.00,VWS V14.01,2013-01-13 20:10:00,
2013-01-13 14:15:00,21.7,5.1,29.97,NNW,338,4.0,4.0,48,0.00,,---,0.00,VWS V14.01,2013-01-13 20:15:00,
2013-01-13 14:20:00,21.7,5.1,29.97,SSW,202,3.1,3.1,48,0.00,,---,0.00,VWS V14.01,2013-01-13 20:20:00,
2013-01-13 14:25:00,21.7,5.1,29.97,WNW,292,2.5,4.9,48,0.00,,---,0.00,VWS V14.01,2013-01-13 20:25:00,
2013-01-13 14:30:00,25.3,7.9,29.97,SW,225,2.5,2.5,47,0.00,,---,0.00,VWS V14.01,2013-01-13 20:30:00,
2013-01-13 14:35:00,25.5,8.1,29.97,NNW,338,4.0,4.0,47,0.00,,---,0.00,VWS V14.01,2013-01-13 20:35:00,
2013-01-13 14:40:00,25.7,8.3,29.97,NNW,338,6.0,6.0,47,0.00,,---,0.00,VWS V14.01,2013-01-13 20:40:00,
2013-01-13 14:45:00,25.3,7.9,29.97,NW,315,3.6,6.0,47,0.00,,---,0.00,VWS V14.01,2013-01-13 20:45:00,
2013-01-13 14:50:00,24.8,7.4,29.97,WNW,292,3.1,4.7,47,0.00,,---,0.00,VWS V14.01,2013-01-13 20:50:00,
2013-01-13 14:55:00,24.1,6.8,29.97,West,270,9.6,9.6,47,0.00,,---,0.00,VWS V14.01,2013-01-13 20:55:00,
2013-01-13 15:00:00,24.1,6.8,29.97,NW,315,6.5,6.5,47,0.00,,---,0.00,VWS V14.01,2013-01-13 21:00:00,
2013-01-13 15:05:00,22.8,5.6,30.00,WSW,248,5.4,5.4,47,0.00,,---,0.00,VWS V14.01,2013-01-13 21:05:00,
2013-01-13 15:10:00,23.4,6.1,30.00,NW,315,3.1,3.1,47,0.00,,---,0.00,VWS V14.01,2013-01-13 21:10:00,
2013-01-13 15:15:00,23.4,6.1,30.00,WNW,292,3.1,3.1,47,0.00,,---,0.00,VWS V14.01,2013-01-13 21:15:00,
2013-01-13 15:20:00,23.0,5.8,30.00,WNW,292,7.8,7.8,47,0.00,,---,0.00,VWS V14.01,2013-01-13 21:20:00,
2013-01-13 15:25:00,23.0,5.8,30.00,WNW,292,6.0,6.0,47,0.00,,---,0.00,VWS V14.01,2013-01-13 21:25:00,
2013-01-13 15:30:00,23.0,5.8,30.00,WNW,292,5.8,5.8,47,0.00,,---,0.00,VWS V14.01,2013-01-13 21:30:00,
2013-01-13 15:35:00,22.6,5.5,30.00,WNW,292,2.5,2.5,47,0.00,,---,0.00,VWS V14.01,2013-01-13 21:35:00,
2013-01-13 15:40:00,22.8,5.6,30.00,WSW,248,4.0,4.0,47,0.00,,---,0.00,VWS V14.01,2013-01-13 21:40:00,
2013-01-13 15:46:00,22.8,6.1,30.00,WNW,292,6.3,6.3,48,0.00,,---,0.00,VWS V14.01,2013-01-13 21:46:00,
2013-01-13 15:51:00,22.5,5.3,30.00,NW,315,7.4,7.4,47,0.00,,---,0.00,VWS V14.01,2013-01-13 21:51:00,
2013-01-13 15:56:00,22.6,5.5,30.00,NW,315,7.2,7.2,47,0.00,,---,0.00,VWS V14.01,2013-01-13 21:56:00,
2013-01-13 16:01:00,22.8,5.6,30.00,NNW,338,2.0,2.0,47,0.00,,---,0.00,VWS V14.01,2013-01-13 22:01:00,
2013-01-13 16:06:00,22.8,6.1,30.00,North,0,4.0,4.0,48,0.00,,---,0.00,VWS V14.01,2013-01-13 22:06:00,
2013-01-13 16:11:00,23.4,6.1,30.00,WNW,292,2.5,3.8,47,0.00,,---,0.00,VWS V14.01,2013-01-13 22:11:00,
2013-01-13 16:16:00,23.2,5.9,30.00,ESE,112,3.1,3.1,47,0.00,,---,0.00,VWS V14.01,2013-01-13 22:16:00,
2013-01-13 16:21:00,22.8,6.1,30.00,WNW,292,2.7,4.9,48,0.00,,---,0.00,VWS V14.01,2013-01-13 22:21:00,
2013-01-13 16:26:00,22.6,5.5,30.00,WNW,292,2.9,5.4,47,0.00,,---,0.00,VWS V14.01,2013-01-13 22:26:00,
2013-01-13 16:31:00,22.3,5.1,30.00,NNE,22,2.0,2.5,47,0.00,,---,0.00,VWS V14.01,2013-01-13 22:31:00,
2013-01-13 16:36:00,22.3,5.1,30.00,NNW,338,3.1,3.6,47,0.00,,---,0.00,VWS V14.01,2013-01-13 22:36:00,
2013-01-13 16:41:00,21.9,5.2,30.00,NW,315,2.7,3.8,48,0.00,,---,0.00,VWS V14.01,2013-01-13 22:41:00,
2013-01-13 16:46:00,21.6,4.9,30.00,WNW,292,2.7,4.9,48,0.00,,---,0.00,VWS V14.01,2013-01-13 22:46:00,
2013-01-13 16:51:00,21.2,4.6,30.03,WNW,292,3.6,3.6,48,0.00,,---,0.00,VWS V14.01,2013-01-13 22:51:00,
2013-01-13 16:56:00,21.0,4.4,30.03,NW,315,4.0,5.4,48,0.00,,---,0.00,VWS V14.01,2013-01-13 22:56:00,
2013-01-13 17:01:00,20.5,4.4,30.03,NW,315,1.1,1.1,49,0.00,,---,0.00,VWS V14.01,2013-01-13 23:01:00,
2013-01-13 17:06:00,20.3,4.2,30.03,NW,315,3.1,3.1,49,0.00,,---,0.00,VWS V14.01,2013-01-13 23:06:00,
2013-01-13 17:11:00,20.1,4.0,30.03,WNW,292,4.3,4.3,49,0.00,,---,0.00,VWS V14.01,2013-01-13 23:11:00,
2013-01-13 17:16:00,19.8,3.7,30.03,WNW,292,3.6,3.6,49,0.00,,---,0.00,VWS V14.01,2013-01-13 23:16:00,
2013-01-13 17:21:00,19.6,3.5,30.03,NNW,338,2.0,2.2,49,0.00,,---,0.00,VWS V14.01,2013-01-13 23:21:00,
2013-01-13 17:26:00,19.6,3.5,30.03,WNW,292,1.6,1.6,49,0.00,,---,0.00,VWS V14.01,2013-01-13 23:26:00,
2013-01-13 17:31:00,19.4,3.8,30.03,WNW,292,2.2,2.2,50,0.00,,---,0.00,VWS V14.01,2013-01-13 23:31:00,
2013-01-13 17:36:00,19.2,3.6,30.03,NNW,338,3.4,3.4,50,0.00,,---,0.00,VWS V14.01,2013-01-13 23:36:00,
2013-01-13 17:41:00,19.0,3.9,30.03,West,270,2.9,3.1,51,0.00,,---,0.00,VWS V14.01,2013-01-13 23:41:00,
2013-01-13 17:46:00,19.0,3.9,30.03,NNW,338,3.1,3.1,51,0.00,,---,0.00,VWS V14.01,2013-01-13 23:46:00,
2013-01-13 17:51:00,18.9,3.7,30.03,NNW,338,3.8,3.8,51,0.00,,---,0.00,VWS V14.01,2013-01-13 23:51:00,
2013-01-13 17:56:00,18.7,3.6,30.03,NW,315,2.2,2.2,51,0.00,,---,0.00,VWS V14.01,2013-01-13 23:56:00,
2013-01-13 18:01:00,18.5,3.8,30.06,West,270,1.6,1.6,52,0.00,,---,0.00,VWS V14.01,2013-01-14 00:01:00,
2013-01-13 18:06:00,18.5,3.8,30.06,NW,315,0.0,1.6,52,0.00,,---,0.00,VWS V14.01,2013-01-14 00:06:00,
2013-01-13 18:11:00,18.3,3.7,30.06,West,270,1.1,2.0,52,0.00,,---,0.00,VWS V14.01,2013-01-14 00:11:00,
2013-01-13 18:16:00,18.1,3.5,30.06,NW,315,1.6,1.6,52,0.00,,---,0.00,VWS V14.01,2013-01-14 00:16:00,
2013-01-13 18:21:00,17.8,3.2,30.03,WNW,292,1.1,1.1,52,0.00,,---,0.00,VWS V14.01,2013-01-14 00:21:00,
2013-01-13 18:26:00,17.8,3.6,30.03,NW,315,2.2,2.2,53,0.00,,---,0.00,VWS V14.01,2013-01-14 00:26:00,
2013-01-13 18:31:00,17.8,3.6,30.06,WNW,292,2.0,2.0,53,0.00,,---,0.00,VWS V14.01,2013-01-14 00:31:00,
2013-01-13 18:36:00,17.6,3.4,30.06,NNW,338,2.5,2.5,53,0.00,,---,0.00,VWS V14.01,2013-01-14 00:36:00,
2013-01-13 18:41:00,17.6,3.4,30.06,WNW,292,3.6,3.6,53,0.00,,---,0.00,VWS V14.01,2013-01-14 00:41:00,
2013-01-13 18:46:00,17.4,3.2,30.06,WNW,292,2.7,2.7,53,0.00,,---,0.00,VWS V14.01,2013-01-14 00:46:00,
2013-01-13 18:51:00,17.2,3.1,30.06,NW,315,2.9,2.9,53,0.00,,---,0.00,VWS V14.01,2013-01-14 00:51:00,
2013-01-13 18:56:00,17.1,3.3,30.06,NNW,338,2.5,2.5,54,0.00,,---,0.00,VWS V14.01,2013-01-14 00:56:00,
2013-01-13 19:01:00,17.1,3.3,30.06,NW,315,1.1,2.7,54,0.00,,---,0.00,VWS V14.01,2013-01-14 01:01:00,
2013-01-13 19:06:00,16.9,3.1,30.06,WNW,292,1.6,2.2,54,0.00,,---,0.00,VWS V14.01,2013-01-14 01:06:00,
2013-01-13 19:11:00,16.7,3.0,30.06,NNW,338,0.0,1.1,54,0.00,,---,0.00,VWS V14.01,2013-01-14 01:11:00,
2013-01-13 19:16:00,16.3,2.6,30.06,West,270,0.0,0.0,54,0.00,,---,0.00,VWS V14.01,2013-01-14 01:16:00,
2013-01-13 19:21:00,16.2,2.5,30.06,WNW,292,0.0,1.1,54,0.00,,---,0.00,VWS V14.01,2013-01-14 01:21:00,
2013-01-13 19:26:00,15.8,2.5,30.06,WNW,292,1.1,1.3,55,0.00,,---,0.00,VWS V14.01,2013-01-14 01:26:00,
2013-01-13 19:31:00,15.6,2.3,30.06,West,270,1.3,1.3,55,0.00,,---,0.00,VWS V14.01,2013-01-14 01:31:00,
2013-01-13 19:36:00,15.4,2.2,30.06,WNW,292,1.1,1.1,55,0.00,,---,0.00,VWS V14.01,2013-01-14 01:36:00,
2013-01-13 19:41:00,15.1,1.8,30.06,WNW,292,0.0,0.0,55,0.00,,---,0.00,VWS V14.01,2013-01-14 01:41:00,
2013-01-13 19:46:00,14.5,1.3,30.06,NW,315,0.0,0.0,55,0.00,,---,0.00,VWS V14.01,2013-01-14 01:46:00,
2013-01-13 19:51:00,14.4,1.2,30.06,NW,315,0.0,0.0,55,0.00,,---,0.00,VWS V14.01,2013-01-14 01:51:00,
2013-01-13 19:56:00,14.4,1.5,30.06,WNW,292,0.0,0.0,56,0.00,,---,0.00,VWS V14.01,2013-01-14 01:56:00,
2013-01-13 20:01:00,14.5,1.7,30.06,West,270,1.6,1.6,56,0.00,,---,0.00,VWS V14.01,2013-01-14 02:01:00,
2013-01-13 20:06:00,14.5,1.7,30.06,West,270,2.0,2.0,56,0.00,,---,0.00,VWS V14.01,2013-01-14 02:06:00,
2013-01-13 20:11:00,14.7,1.9,30.06,WNW,292,1.6,1.6,56,0.00,,---,0.00,VWS V14.01,2013-01-14 02:11:00,
2013-01-13 20:16:00,14.9,2.0,30.06,WNW,292,2.5,2.5,56,0.00,,---,0.00,VWS V14.01,2013-01-14 02:16:00,
2013-01-13 20:21:00,14.9,2.0,30.06,WNW,292,2.5,2.5,56,0.00,,---,0.00,VWS V14.01,2013-01-14 02:21:00,
2013-01-13 20:26:00,14.9,2.0,30.06,WNW,292,2.5,2.5,56,0.00,,---,0.00,VWS V14.01,2013-01-14 02:26:00,
2013-01-13 20:31:00,14.9,2.0,30.06,NW,315,0.0,0.0,56,0.00,,---,0.00,VWS V14.01,2013-01-14 02:31:00,
2013-01-13 20:36:00,14.4,1.5,30.06,WSW,248,1.1,1.1,56,0.00,,---,0.00,VWS V14.01,2013-01-14 02:36:00,
2013-01-13 20:41:00,14.2,1.4,30.06,WNW,292,1.6,1.6,56,0.00,,---,0.00,VWS V14.01,2013-01-14 02:41:00,
2013-01-13 20:46:00,14.2,1.8,30.06,WNW,292,1.3,1.3,57,0.00,,---,0.00,VWS V14.01,2013-01-14 02:46:00,
2013-01-13 20:52:00,14.4,1.9,30.06,WNW,292,1.3,2.0,57,0.00,,---,0.00,VWS V14.01,2013-01-14 02:52:00,
2013-01-13 20:57:00,14.4,1.9,30.06,West,270,2.5,2.5,57,0.00,,---,0.00,VWS V14.01,2013-01-14 02:57:00,
2013-01-13 21:02:00,14.7,2.3,30.06,WNW,292,2.2,2.5,57,0.00,,---,0.00,VWS V14.01,2013-01-14 03:02:00,
2013-01-13 21:07:00,14.7,2.3,30.06,West,270,1.6,2.5,57,0.00,,---,0.00,VWS V14.01,2013-01-14 03:07:00,
2013-01-13 21:12:00,14.7,2.3,30.06,WNW,292,2.0,2.0,57,0.00,,---,0.00,VWS V14.01,2013-01-14 03:12:00,
2013-01-13 21:17:00,14.7,2.3,30.06,WNW,292,2.0,2.0,57,0.00,,---,0.00,VWS V14.01,2013-01-14 03:17:00,
2013-01-13 21:22:00,14.5,2.1,30.06,WNW,292,1.6,2.0,57,0.00,,---,0.00,VWS V14.01,2013-01-14 03:22:00,
2013-01-13 21:27:00,14.5,2.1,30.06,WNW,292,2.0,2.0,57,0.00,,---,0.00,VWS V14.01,2013-01-14 03:27:00,
2013-01-13 21:32:00,14.5,2.1,30.09,NW,315,2.0,2.0,57,0.00,,---,0.00,VWS V14.01,2013-01-14 03:32:00,
2013-01-13 21:37:00,14.5,2.1,30.09,WNW,292,2.0,2.0,57,0.00,,---,0.00,VWS V14.01,2013-01-14 03:37:00,
2013-01-13 21:42:00,14.7,2.3,30.09,NW,315,3.8,3.8,57,0.00,,---,0.00,VWS V14.01,2013-01-14 03:42:00,
2013-01-13 21:47:00,14.9,2.4,30.06,NNW,338,2.5,2.9,57,0.00,,---,0.00,VWS V14.01,2013-01-14 03:47:00,
2013-01-13 21:52:00,15.1,2.6,30.06,WNW,292,1.3,3.4,57,0.00,,---,0.00,VWS V14.01,2013-01-14 03:52:00,
2013-01-13 21:57:00,15.1,2.6,30.06,NNW,338,2.9,2.9,57,0.00,,---,0.00,VWS V14.01,2013-01-14 03:57:00,
2013-01-13 22:02:00,15.1,2.6,30.06,WNW,292,1.6,1.6,57,0.00,,---,0.00,VWS V14.01,2013-01-14 04:02:00,
2013-01-13 22:07:00,14.9,2.4,30.06,WNW,292,2.0,2.2,57,0.00,,---,0.00,VWS V14.01,2013-01-14 04:07:00,
2013-01-13 22:12:00,14.9,2.4,30.06,NW,315,1.6,1.6,57,0.00,,---,0.00,VWS V14.01,2013-01-14 04:12:00,
2013-01-13 22:17:00,14.5,2.1,30.09,West,270,1.6,1.6,57,0.00,,---,0.00,VWS V14.01,2013-01-14 04:17:00,
2013-01-13 22:22:00,14.4,1.9,30.09,WNW,292,1.1,1.1,57,0.00,,---,0.00,VWS V14.01,2013-01-14 04:22:00,
2013-01-13 22:27:00,14.4,1.9,30.09,WNW,292,2.0,2.0,57,0.00,,---,0.00,VWS V14.01,2013-01-14 04:27:00,
2013-01-13 22:32:00,14.2,1.8,30.09,WNW,292,2.2,2.2,57,0.00,,---,0.00,VWS V14.01,2013-01-14 04:32:00,
2013-01-13 22:37:00,14.0,2.0,30.09,West,270,2.5,2.5,58,0.00,,---,0.00,VWS V14.01,2013-01-14 04:37:00,
2013-01-13 22:42:00,13.8,1.8,30.09,WNW,292,1.6,1.6,58,0.00,,---,0.00,VWS V14.01,2013-01-14 04:42:00,
2013-01-13 22:47:00,13.6,1.6,30.09,WNW,292,2.0,2.2,58,0.00,,---,0.00,VWS V14.01,2013-01-14 04:47:00,
2013-01-13 22:52:00,13.6,1.6,30.09,WNW,292,1.3,2.0,58,0.00,,---,0.00,VWS V14.01,2013-01-14 04:52:00,
2013-01-13 22:57:00,13.6,1.6,30.09,WNW,292,1.6,1.6,58,0.00,,---,0.00,VWS V14.01,2013-01-14 04:57:00,
2013-01-13 23:00:00,13.6,1.6,30.09,WNW,292,0.0,0.0,58,0.00,,---,0.00,VWS V14.01,2013-01-14 05:00:00,
2013-01-13 23:01:00,13.5,1.5,30.09,WNW,292,0.0,0.0,58,0.00,,---,0.00,VWS V14.01,2013-01-14 05:01:00,
2013-01-13 23:03:00,13.5,1.5,30.09,WNW,292,0.0,0.0,58,0.00,,---,0.00,VWS V14.01,2013-01-14 05:03:00,
2013-01-13 23:08:00,13.1,1.1,30.09,West,270,1.1,1.1,58,0.00,,---,0.00,VWS V14.01,2013-01-14 05:08:00,
2013-01-13 23:13:00,12.9,0.9,30.09,West,270,0.0,0.0,58,0.00,,---,0.00,VWS V14.01,2013-01-14 05:13:00,
2013-01-13 23:18:00,12.7,0.8,30.09,West,270,0.0,0.0,58,0.00,,---,0.00,VWS V14.01,2013-01-14 05:18:00,
2013-01-13 23:23:00,12.6,0.6,30.09,West,270,0.0,0.0,58,0.00,,---,0.00,VWS V14.01,2013-01-14 05:23:00,
2013-01-13 23:28:00,12.4,0.4,30.09,West,270,0.0,0.0,58,0.00,,---,0.00,VWS V14.01,2013-01-14 05:28:00,
2013-01-13 23:33:00,12.4,0.4,30.09,WNW,292,0.0,0.0,58,0.00,,---,0.00,VWS V14.01,2013-01-14 05:33:00,
2013-01-13 23:38:00,12.2,0.3,30.09,West,270,0.0,0.0,58,0.00,,---,0.00,VWS V14.01,2013-01-14 05:38:00,
2013-01-13 23:43:00,12.2,0.3,30.09,WSW,248,0.0,0.0,58,0.00,,---,0.00,VWS V14.01,2013-01-14 05:43:00,
2013-01-13 23:48:00,12.0,0.1,30.09,SSW,202,0.9,0.9,58,0.00,,---,0.00,VWS V14.01,2013-01-14 05:48:00,
2013-01-13 23:53:00,11.8,-0.1,30.09,SW,225,1.3,2.2,58,0.00,,---,0.00,VWS V14.01,2013-01-14 05:53:00,
2013-01-13 23:58:00,11.8,-0.1,30.09,WSW,248,0.0,1.6,58,0.00,,---,0.00,VWS V14.01,2013-01-14 05:58:00,